N7LK Weather Reports


Display with metric or nautical units.
time (UTC)temp
F
wind
direction
speed
MPH
gust
MPH
rain 1hr
in
rain 24hr
in
rain mn
in
humidity
%
barometer
mb
20260503005342 91 64 1.0 7.0 0.00 0.00 0.00 14 1007.4
20260503004340 91 9 0.0 9.0 0.00 0.00 0.00 13 1007.4
20260503003339 92 48 0.0 5.0 0.00 0.00 0.00 13 1007.5
20260503002344 92 355 3.0 8.0 0.00 0.00 0.00 13 1007.5
20260503001342 93 93 0.0 6.0 0.00 0.00 0.00 13 1007.6
20260503000341 94 65 1.0 10.0 0.00 0.00 0.00 13 1007.6
20260502235402 94 161 1.0 5.0 0.00 0.00 0.00 13 1007.5
20260502234346 94 119 1.0 7.0 0.00 0.00 0.00 13 1007.6
20260502233334 95 63 0.0 0.0 0.00 0.00 0.00 13 1007.5
20260502232341 95 209 0.0 0.0 0.00 0.00 0.00 12 1007.6
20260502231348 94 267 0.0 0.0 0.00 0.00 0.00 13 1007.7
20260502230339 94 61 1.0 6.0 0.00 0.00 0.00 12 1007.8
20260502225406 94 59 0.0 6.0 0.00 0.00 0.00 13 1007.8
20260502224406 94 175 0.0 8.0 0.00 0.00 0.00 13 1008.1
20260502223332 93 141 0.0 8.0 0.00 0.00 0.00 14 1008.2
20260502222340 93 116 0.0 7.0 0.00 0.00 0.00 14 1008.3
20260502221331 93 182 6.0 16.0 0.00 0.00 0.00 14 1008.5
20260502220335 94 171 6.0 11.0 0.00 0.00 0.00 14 1008.6
20260502215335 93 178 7.0 11.0 0.00 0.00 0.00 14 1008.7
20260502214334 92 236 3.0 11.0 0.00 0.00 0.00 15 1008.9
20260502213336 92 23 1.0 8.0 0.00 0.00 0.00 16 1009.0
20260502212334 92 83 0.0 6.0 0.00 0.00 0.00 16 1009.2
20260502211336 91 175 4.0 8.0 0.00 0.00 0.00 17 1009.3
20260502210336 91 65 0.0 6.0 0.00 0.00 0.00 17 1009.5
20260502205335 91 189 1.0 7.0 0.00 0.00 0.00 17 1009.6
20260502204338 91 109 1.0 7.0 0.00 0.00 0.00 16 1009.8
20260502203357 91 168 1.0 8.0 0.00 0.00 0.00 17 1009.9
20260502202335 92 78 5.0 9.0 0.00 0.00 0.00 17 1010.1
20260502201337 92 65 2.0 8.0 0.00 0.00 0.00 16 1010.1
20260502200340 92 206 4.0 9.0 0.00 0.00 0.00 19 1010.3
20260502195337 91 142 1.0 8.0 0.00 0.00 0.00 19 1010.4
20260502194336 91 205 6.0 14.0 0.00 0.00 0.00 20 1010.5
20260502193336 90 115 4.0 10.0 0.00 0.00 0.00 20 1010.7
20260502192336 90 158 6.0 12.0 0.00 0.00 0.00 20 1010.8
20260502191338 90 190 5.0 12.0 0.00 0.00 0.00 21 1011.0
20260502190338 90 184 7.0 14.0 0.00 0.00 0.00 20 1011.1
20260502185337 89 104 4.0 12.0 0.00 0.00 0.00 21 1011.3
20260502184357 90 173 5.0 11.0 0.00 0.00 0.00 21 1011.4
20260502183334 90 44 5.0 12.0 0.00 0.00 0.00 21 1011.6
20260502182339 90 148 3.0 9.0 0.00 0.00 0.00 22 1011.8
20260502181339 89 56 3.0 10.0 0.00 0.00 0.00 23 1011.9
20260502180400 88 77 4.0 12.0 0.00 0.00 0.00 22 1012.1
20260502170341 86 134 7.0 12.0 0.00 0.00 0.00 25 1012.4
20260502164347 85 69 3.0 11.0 0.00 0.00 0.00 27 1012.5
20260502163407 84 88 3.0 11.0 0.00 0.00 0.00 26 1012.5
20260502162407 84 132 6.0 10.0 0.00 0.00 0.00 26 1012.4
20260502161345 84 79 2.0 8.0 0.00 0.00 0.00 27 1012.4
20260502160328 84 119 3.0 10.0 0.00 0.00 0.00 27 1012.4
20260502152344 82 78 3.0 9.0 0.00 0.00 0.00 29 1012.2
20260502151326 81 146 2.0 9.0 0.00 0.00 0.00 30 1012.1
20260502150346 80 86 4.0 8.0 0.00 0.00 0.00 30 1012.1
20260502130328 69 32 0.0 0.0 0.00 0.00 0.00 32 1010.6
20260502123334 69 127 0.0 0.0 0.00 0.00 0.00 31 1010.1
20260502122341 67 136 0.0 0.0 0.00 0.00 0.00 33 1010.1
20260502121328 67 282 0.0 0.0 0.00 0.00 0.00 34 1010.0
20260502120336 67 282 0.0 0.0 0.00 0.00 0.00 36 1010.0
20260502115338 68 282 0.0 0.0 0.00 0.00 0.00 36 1009.9
20260502114344 68 282 0.0 0.0 0.00 0.00 0.00 32 1009.8
20260502113343 69 282 0.0 0.0 0.00 0.00 0.00 33 1009.8
20260502112345 70 282 0.0 0.0 0.00 0.00 0.00 33 1009.8
20260502111344 71 282 0.0 0.0 0.00 0.00 0.00 31 1009.8
20260502110351 72 162 0.0 0.0 0.00 0.00 0.00 30 1009.7
20260502105330 72 138 0.0 0.0 0.00 0.00 0.00 27 1009.6
20260502104329 71 138 0.0 0.0 0.00 0.00 0.00 27 1009.6
20260502103329 71 132 0.0 0.0 0.00 0.00 0.00 27 1009.5
20260502102333 72 52 0.0 0.0 0.00 0.00 0.00 29 1009.3
20260502101335 72 54 0.0 0.0 0.00 0.00 0.00 28 1009.3
20260502100334 72 113 0.0 0.0 0.00 0.00 0.00 27 1009.2
20260502091338 73 69 0.0 0.0 0.00 0.00 0.00 27 1008.9
20260502090338 74 69 0.0 0.0 0.00 0.00 0.00 27 1008.9
20260502071334 74 70 0.0 0.0 0.00 0.00 0.00 28 1008.4
20260502070335 74 70 0.0 0.0 0.00 0.00 0.00 27 1008.3
20260502065335 75 69 0.0 0.0 0.00 0.00 0.00 28 1008.4
20260502064339 75 71 0.0 0.0 0.00 0.00 0.00 27 1008.3
20260502063401 75 71 0.0 0.0 0.00 0.00 0.00 27 1008.3
20260502062338 75 80 0.0 1.0 0.00 0.00 0.00 27 1008.3
20260502061337 75 88 0.0 0.0 0.00 0.00 0.00 26 1008.2
20260502060337 76 306 0.0 0.0 0.00 0.00 0.00 26 1008.1
20260502055343 76 306 0.0 0.0 0.00 0.00 0.00 24 1008.0
20260502054342 77 306 0.0 0.0 0.00 0.00 0.00 24 1008.0
20260502053341 77 306 0.0 0.0 0.00 0.00 0.00 23 1007.8
20260502052341 78 306 0.0 0.0 0.00 0.00 0.00 21 1007.8
20260502051341 78 306 0.0 0.0 0.00 0.00 0.00 20 1007.7
20260502050344 78 306 0.0 0.0 0.00 0.00 0.00 19 1007.7
20260502045345 78 306 0.0 0.0 0.00 0.00 0.00 20 1007.7
20260502044325 79 306 0.0 0.0 0.00 0.00 0.00 20 1007.7
20260502043327 79 306 0.0 0.0 0.00 0.00 0.00 21 1007.7
20260502042330 80 306 0.0 0.0 0.00 0.00 0.00 21 1007.6
20260502041351 81 306 0.0 0.0 0.00 0.00 0.00 20 1007.5
20260502040326 81 306 0.0 0.0 0.00 0.00 0.00 20 1007.4
20260502035327 82 306 0.0 0.0 0.00 0.00 0.00 21 1007.3
20260502034329 83 306 0.0 0.0 0.00 0.00 0.00 20 1007.2
20260502033327 83 169 0.0 0.0 0.00 0.00 0.00 19 1007.1
20260502032327 83 175 0.0 0.0 0.00 0.00 0.00 19 1006.8
20260502031327 84 184 0.0 0.0 0.00 0.00 0.00 18 1006.7
20260502030407 84 219 0.0 0.0 0.00 0.00 0.00 18 1006.7
20260502025329 85 228 0.0 2.0 0.00 0.00 0.00 18 1006.6
20260502024332 85 217 0.0 4.0 0.00 0.00 0.00 18 1006.5
20260502023331 85 227 0.0 1.0 0.00 0.00 0.00 18 1006.4
20260502022331 86 240 0.0 0.0 0.00 0.00 0.00 18 1006.1
20260502021330 86 203 1.0 4.0 0.00 0.00 0.00 18 1006.2
20260502020333 87 221 0.0 4.0 0.00 0.00 0.00 17 1006.1
20260502015334 88 196 0.0 6.0 0.00 0.00 0.00 17 1006.0
20260502014331 88 227 0.0 4.0 0.00 0.00 0.00 18 1006.0
20260502013330 89 260 2.0 7.0 0.00 0.00 0.00 18 1006.0
20260502012333 89 263 0.0 4.0 0.00 0.00 0.00 17 1006.1
20260502011334 89 275 2.0 5.0 0.00 0.00 0.00 17 1006.1
20260502010334 89 275 0.0 8.0 0.00 0.00 0.00 17 1006.1